Galliano, LA

6:37 AM CDT on July 22, 2017 (GMT -0500)
Galliano

Weather History for KGAO - December, 2013

Change the Weather History Date:

Saturday, December 21, 2013

  Actual Average (KHUM) Record (KHUM)
Temperature  
Mean Temperature 71 °F -  
Max Temperature 81 °F 67 °F 82 °F (1967)
Min Temperature 61 °F 47 °F 4 °F (1960)
Cooling Degree Days 6    
Growing Degree Days 21 (Base 50)    
Moisture  
Dew Point 69 °F    
Average Humidity 92    
Maximum Humidity 100    
Minimum Humidity 75    
Precipitation  
Precipitation 0.00 in - - ()
Sea Level Pressure  
Sea Level Pressure 29.84 in    
Wind  
Wind Speed 14 mph (SSW)    
Max Wind Speed 28 mph    
Max Gust Speed 40 mph    
Visibility 8 miles    
Events Rain    
Averages and records for this station are not official NWS values.
T = Trace of Precipitation, MM = Missing Value Source: NWS Daily Summary

Daily Weather History Graph

Daily Weather History Graph

Search for Another Location

Airport or City:

Trip Planner

Search our weather history database for the weather conditions in past years. The results will help you decide how hot, cold, wet, or windy it might be!

Date:

Astronomy

Dec. 21, 2013 Rise Set
Actual Time 6:51 AM CST 5:07 PM CST
Civil Twilight 6:25 AM CST 5:33 PM CST
Nautical Twilight 5:55 AM CST 6:03 PM CST
Astronomical Twilight 5:26 AM CST 6:32 PM CST
Moon 9:06 PM CST (12/21) 9:32 AM CST (12/21)
Length of Visible Light 11h 07m
Length of Day
10h 15m
Waning Gibbous, 84% of the Moon is Illuminated
Dec 21
Waning Gibbous
Dec 25
Last Quarter
Jan 1
New
Jan 7
First Quarter
Jan 15
Full

Hourly Weather History & Observations

Time (CST) Temp. Heat Index Dew Point Humidity Pressure Visibility Wind Dir Wind Speed Gust Speed Precip Events Conditions
12:15 AM 62.6 °F - 62.2 °F 99% 29.95 in 7.0 mi SSE 9.2 mph - N/A   Mostly Cloudy
12:35 AM 62.2 °F - 62.1 °F 99% 29.94 in 7.0 mi SSE 9.2 mph - N/A   Mostly Cloudy
12:55 AM 62.1 °F - 61.9 °F 99% 29.93 in 7.0 mi SSE 8.1 mph - N/A   Mostly Cloudy
1:15 AM 61.9 °F - 61.7 °F 99% 29.93 in 7.0 mi SSE 9.2 mph - N/A   Scattered Clouds
1:35 AM 61.9 °F - 61.7 °F 99% 29.92 in 5.0 mi SSE 10.4 mph - N/A   Mostly Cloudy
1:55 AM 62.1 °F - 61.9 °F 99% 29.91 in 5.0 mi South 9.2 mph - N/A   Overcast
2:15 AM 61.7 °F - 61.7 °F 100% 29.91 in 5.0 mi SSE 9.2 mph - N/A   Overcast
2:35 AM 61.7 °F - 61.7 °F 100% 29.90 in 5.0 mi South 11.5 mph - N/A   Overcast
2:55 AM 61.2 °F - 61.2 °F 100% 29.90 in 5.0 mi South 9.2 mph - N/A   Overcast
3:15 AM 61.2 °F - 61.2 °F 100% 29.90 in 5.0 mi South 8.1 mph - N/A   Overcast
3:35 AM 61.0 °F - 61.0 °F 100% 29.89 in 7.0 mi SSE 9.2 mph - N/A   Mostly Cloudy
3:55 AM 61.2 °F - 61.2 °F 100% 29.88 in 7.0 mi SSE 10.4 mph - N/A   Scattered Clouds
4:15 AM 61.2 °F - 61.2 °F 100% 29.88 in 7.0 mi SSE 9.2 mph - N/A   Overcast
4:35 AM 61.3 °F - 61.3 °F 100% 29.87 in 5.0 mi SSE 11.5 mph - N/A   Overcast
4:55 AM 61.3 °F - 61.3 °F 100% 29.86 in 4.0 mi SSE 10.4 mph 16.1 mph N/A   Overcast
5:15 AM 61.3 °F - 61.3 °F 100% 29.87 in 2.5 mi South 10.4 mph - N/A   Overcast
5:35 AM 61.7 °F - 61.7 °F 100% 29.88 in 5.0 mi South 10.4 mph - N/A   Overcast
5:55 AM 61.7 °F - 61.7 °F 100% 29.86 in 7.0 mi South 10.4 mph - N/A   Overcast
6:15 AM 61.7 °F - 61.7 °F 100% 29.86 in 7.0 mi South 12.7 mph 17.3 mph N/A   Overcast
6:35 AM 61.7 °F - 61.7 °F 100% 29.85 in 7.0 mi South 12.7 mph 19.6 mph N/A   Overcast
6:55 AM 61.7 °F - 61.7 °F 100% 29.85 in 7.0 mi South 15.0 mph 20.7 mph N/A   Mostly Cloudy
7:15 AM 62.1 °F - 62.1 °F 100% 29.86 in 7.0 mi South 12.7 mph 20.7 mph N/A   Scattered Clouds
7:35 AM 62.8 °F - 62.6 °F 99% 29.86 in 7.0 mi South 16.1 mph 20.7 mph N/A   Scattered Clouds
7:55 AM 64.4 °F - 64.0 °F 99% 29.86 in 7.0 mi South 16.1 mph 20.7 mph N/A   Mostly Cloudy
8:15 AM 66.2 °F - 65.5 °F 98% 29.86 in 7.0 mi South 16.1 mph 23.0 mph N/A   Mostly Cloudy
8:35 AM 67.1 °F - 66.4 °F 98% 29.85 in 7.0 mi South 11.5 mph 20.7 mph N/A   Mostly Cloudy
8:55 AM 69.1 °F - 67.8 °F 96% 29.86 in 7.0 mi South 16.1 mph 23.0 mph N/A   Overcast
9:15 AM 71.4 °F - 69.4 °F 93% 29.86 in 10.0 mi South 13.8 mph 21.9 mph N/A   Overcast
9:35 AM 72.5 °F - 70.0 °F 92% 29.86 in 10.0 mi South 16.1 mph 21.9 mph N/A   Overcast
9:55 AM 73.4 °F - 70.7 °F 91% 29.86 in 10.0 mi South 16.1 mph 21.9 mph N/A   Overcast
10:15 AM 75.2 °F - 71.6 °F 89% 29.86 in 10.0 mi SSW 17.3 mph 24.2 mph N/A   Overcast
10:35 AM 76.3 °F - 72.3 °F 87% 29.86 in 10.0 mi SSW 23.0 mph 29.9 mph N/A   Overcast
10:55 AM 77.9 °F - 72.5 °F 83% 29.85 in 10.0 mi SSW 25.3 mph 34.5 mph N/A   Overcast
11:15 AM 79.0 °F - 73.0 °F 82% 29.84 in 10.0 mi SW 18.4 mph 31.1 mph N/A   Overcast
11:35 AM 79.5 °F - 73.0 °F 80% 29.83 in 10.0 mi SSW 21.9 mph 33.4 mph N/A   Overcast
11:55 AM 79.0 °F - 73.0 °F 82% 29.82 in 10.0 mi SW 24.2 mph 35.7 mph N/A   Overcast
12:15 PM 79.5 °F - 73.0 °F 80% 29.81 in 10.0 mi SW 21.9 mph 34.5 mph N/A   Mostly Cloudy
12:35 PM 79.3 °F - 73.4 °F 82% 29.80 in 10.0 mi SW 19.6 mph 31.1 mph N/A   Mostly Cloudy
12:55 PM 80.4 °F 85.0 °F 73.2 °F 79% 29.79 in 10.0 mi SW 23.0 mph 34.5 mph N/A   Overcast
1:15 PM 81.0 °F 85.8 °F 73.0 °F 77% 29.78 in 10.0 mi SW 27.6 mph 38.0 mph N/A   Mostly Cloudy
1:35 PM 81.5 °F 86.5 °F 73.0 °F 75% 29.78 in 10.0 mi SW 27.6 mph 40.3 mph N/A   Mostly Cloudy
1:55 PM 80.4 °F 84.7 °F 72.7 °F 77% 29.78 in 10.0 mi SW 27.6 mph 39.1 mph N/A   Mostly Cloudy
2:15 PM 79.2 °F - 72.9 °F 81% 29.77 in 10.0 mi SW 26.5 mph 36.8 mph N/A   Overcast
2:35 PM 79.7 °F - 72.9 °F 80% 29.77 in 10.0 mi SW 26.5 mph 35.7 mph N/A   Overcast
2:55 PM 79.9 °F - 72.9 °F 79% 29.76 in 10.0 mi SW 20.7 mph 39.1 mph N/A   Mostly Cloudy
3:15 PM 78.8 °F - 72.9 °F 82% 29.76 in 10.0 mi SW 21.9 mph 32.2 mph N/A   Mostly Cloudy
3:35 PM 78.8 °F - 72.9 °F 82% 29.76 in 10.0 mi SW 27.6 mph 39.1 mph N/A   Overcast
3:55 PM 78.3 °F - 72.9 °F 83% 29.77 in 10.0 mi SW 24.2 mph 31.1 mph N/A   Overcast
4:15 PM 77.9 °F - 72.7 °F 84% 29.77 in 7.0 mi SW 21.9 mph 31.1 mph N/A   Overcast
4:35 PM 77.4 °F - 72.7 °F 85% 29.77 in 7.0 mi SW 23.0 mph 32.2 mph N/A   Mostly Cloudy
4:55 PM 76.5 °F - 72.5 °F 87% 29.77 in 7.0 mi SSW 18.4 mph 26.5 mph N/A   Mostly Cloudy
5:15 PM 76.1 °F - 72.5 °F 89% 29.78 in 10.0 mi SW 19.6 mph 26.5 mph N/A   Mostly Cloudy
5:35 PM 75.7 °F - 72.5 °F 90% 29.77 in 10.0 mi SSW 19.6 mph 24.2 mph N/A   Mostly Cloudy
5:55 PM 75.4 °F - 72.5 °F 91% 29.78 in 7.0 mi SW 19.6 mph 27.6 mph N/A   Mostly Cloudy
6:15 PM 75.6 °F - 72.5 °F 90% 29.78 in 10.0 mi SW 18.4 mph 28.8 mph N/A   Mostly Cloudy
6:35 PM 75.6 °F - 72.5 °F 90% 29.79 in 10.0 mi SW 19.6 mph 26.5 mph N/A   Mostly Cloudy
6:55 PM 75.7 °F - 72.5 °F 90% 29.79 in 7.0 mi SSW 20.7 mph 27.6 mph N/A   Scattered Clouds
7:15 PM 75.4 °F - 72.5 °F 91% 29.81 in 7.0 mi SSW 17.3 mph 26.5 mph N/A   Mostly Cloudy
7:35 PM 75.4 °F - 72.5 °F 91% 29.81 in 7.0 mi SW 18.4 mph 25.3 mph N/A   Overcast
7:55 PM 75.4 °F - 72.5 °F 91% 29.82 in 7.0 mi SW 16.1 mph 20.7 mph N/A   Overcast
8:15 PM 75.2 °F - 72.5 °F 91% 29.83 in 7.0 mi SW 13.8 mph 23.0 mph N/A   Overcast
8:35 PM 74.7 °F - 72.1 °F 92% 29.82 in 7.0 mi SW 17.3 mph 21.9 mph N/A   Mostly Cloudy
8:55 PM 74.3 °F - 72.0 °F 92% 29.81 in 7.0 mi SSW 19.6 mph 24.2 mph N/A   Clear
9:15 PM 74.7 °F - 72.5 °F 93% 29.83 in 7.0 mi SW 16.1 mph 25.3 mph N/A   Mostly Cloudy
9:35 PM 74.8 °F - 72.5 °F 92% 29.83 in 7.0 mi SSW 19.6 mph 26.5 mph N/A   Overcast
9:55 PM 74.8 °F - 72.5 °F 92% 29.83 in 7.0 mi SW 19.6 mph 25.3 mph N/A   Overcast
10:15 PM 74.5 °F - 72.5 °F 94% 29.84 in 7.0 mi SW 16.1 mph 24.2 mph N/A   Overcast
10:35 PM 74.3 °F - 72.1 °F 93% 29.85 in 7.0 mi SW 13.8 mph 21.9 mph N/A   Overcast
10:55 PM 73.9 °F - 71.8 °F 93% 29.85 in 7.0 mi WSW 10.4 mph - N/A   Overcast
11:15 PM 72.9 °F - 71.1 °F 94% 29.85 in 7.0 mi WSW 12.7 mph 18.4 mph N/A   Overcast
11:35 PM 70.9 °F - 69.4 °F 95% 29.85 in 5.0 mi WSW 12.7 mph - N/A Rain Light Rain
11:55 PM 68.9 °F - 68.0 °F 97% 29.85 in 5.0 mi WSW 10.4 mph - N/A   Drizzle